Regional Weather Roundup
Issued by NWS

Home | Current Version | Previous Version | Graphics & Text | Print | Product List | Glossary On
Versions: 1 2 3 4 5 6 7 8 9 10 11 12 13 14 15 16 17 18 19 20 21 22 23 24 25 26 27 28 29 30 31 32 33 34 35 36 37 38 39 40 41 42 43 44 45 46 47 48 49 50
000
ASUS45 KCYS 221810
RWRWY

WYOMING REGIONAL WEATHER ROUNDUP
NATIONAL WEATHER SERVICE CHEYENNE WY
1200 PM MDT FRI MAY 22 2015

NOTE:  "FAIR" INDICATES FEW OR NO CLOUDS BELOW 12,000 FEET
WITH NO SIGNIFICANT WEATHER AND/OR OBSTRUCTIONS TO VISIBILITY.

WYZ001-221900-
YELLOWSTONE NATIONAL PARK

CITY           SKY/WX    TMP DP  RH WIND       PRES   REMARKS
LK YELLOWSTONE   N/A     48  36  63 E6        30.04F
6HR MIN TEMP:  33; 6HR MAX TEMP:  49;

W YELLOWSTONE  NOT AVBL

$$
WYZ002>013-054>058-071-098>099-221900-
NORTHERN WYOMING

CITY           SKY/WX    TMP DP  RH WIND       PRES   REMARKS
JACKSON        PTSUNNY   55  37  50 CALM      29.96F
CODY           FAIR      57  45  62 NE3       29.96F
GREYBULL       FAIR      64  42  44 VRB3      29.92F
6HR MIN TEMP:  49; 6HR MAX TEMP:  64;

WORLAND        PTSUNNY   60  46  59 W3        29.93F
6HR MIN TEMP:  47; 6HR MAX TEMP:  61;

SHERIDAN       FAIR      63  47  55 SE18G24   29.95F
6HR MIN TEMP:  41; 6HR MAX TEMP:  63;

BUFFALO          N/A     55  45  68 SE15      30.00S
6HR MIN TEMP:  45; 6HR MAX TEMP:  55;

GILLETTE       PTSUNNY   57  42  57 S23G31    30.02S
6HR MIN TEMP:  47; 6HR MAX TEMP:  58;

HULETT         CLOUDY    59  43  55 CALM      30.05S
NEWCASTLE      MOCLDY    54  41  62 SE20G28   30.07S

$$
WYZ014>020-022>026-101>103-221900-
CENTRAL WYOMING

CITY           SKY/WX    TMP DP  RH WIND       PRES   REMARKS
BIG PINEY      PTSUNNY   53  39  59 SE8       29.98F
6HR MIN TEMP:  43; 6HR MAX TEMP:  55;

PINEDALE       MOCLDY    54  37  54 W3        29.98F
DUBOIS         FAIR      54  36  50 S6        30.00S
LANDER         LGT RAIN  51  47  86 N6        29.97F
6HR MIN TEMP:  43; 6HR MAX TEMP:  51; 6HR PCP:  0.01;

RIVERTON       CLOUDY    50  46  86 N6        29.99S
6HR MIN TEMP:  44; 6HR MAX TEMP:  50; 6HR PCP:  0.03;

CASPER         LGT RAIN  50  47  89 E13       29.98S
6HR MIN TEMP:  44; 6HR MAX TEMP:  52; 6HR PCP:  0.01;

DOUGLAS        CLOUDY    50  45  83 SE18      30.03F
6HR MIN TEMP:  46; 6HR MAX TEMP:  50;


$$
WYZ021-027>030-104>119-221900-
SOUTHERN WYOMING

CITY           SKY/WX    TMP DP  RH WIND       PRES   REMARKS
EVANSTON       PTSUNNY   48  41  76 VRB5      29.99F
6HR MIN TEMP:  37; 6HR MAX TEMP:  48;

KEMMERER       FAIR      52  41  66 SE6       30.00F
FORT BRIDGER   MOCLDY    52  45  76 NE6       30.02F
ROCK SPRINGS   CLOUDY    51  41  68 E7        29.99S
6HR MIN TEMP:  41; 6HR MAX TEMP:  52;

DIXON          DRIZZLE   46  42  88 SW9       30.06R
RAWLINS        LGT RAIN  49  43  80 N5        29.99F
6HR MIN TEMP:  43; 6HR MAX TEMP:  50; 6HR PCP:  0.05;

SARATOGA       CLOUDY    48  43  81 W9        30.02S
LARAMIE        CLOUDY    47  39  74 SE18      30.00S
6HR MIN TEMP:  41; 6HR MAX TEMP:  48; 6HR PCP: TRACE;

CHEYENNE       LGT RAIN  44  42  93 SE16      30.04S FOG
6HR MIN TEMP:  42; 6HR MAX TEMP:  45; 6HR PCP:  0.37;

TORRINGTON     LGT RAIN  49  45  86 MISG      30.05S
6HR MIN TEMP:  47; 6HR MAX TEMP:  49; 6HR PCP:  0.04;

PINE BLUFFS    CLOUDY    46  43  87 SE12      30.05S

$$


USA.gov is the U.S. government's official web portal to all federal, state and local government web resources and services.